| time (UTC) | temp F | wind direction | speed knots | gust knots | rain 1hr in | rain 24hr in | rain mn in | humidity % | barometer mb |
| 20260506033027 | 64 | 213 | 2.6 | 13.0 | 0.00 | 0.00 | 0.00 | 60 | 1009.9 |
| 20260506032528 | 64 | 245 | 1.7 | 8.7 | 0.00 | 0.00 | 0.00 | 60 | 1009.8 |
| 20260506032027 | 64 | 240 | 0.9 | 7.0 | 0.00 | 0.00 | 0.00 | 60 | 1009.8 |
| 20260506031527 | 64 | 228 | 1.7 | 7.8 | 0.00 | 0.00 | 0.00 | 60 | 1009.8 |
| 20260506031027 | 64 | 198 | 1.7 | 8.7 | 0.00 | 0.00 | 0.00 | 60 | 1009.7 |
| 20260506030527 | 64 | 210 | 2.6 | 7.0 | 0.00 | 0.00 | 0.00 | 59 | 1009.7 |
| 20260506030029 | 64 | 234 | 1.7 | 7.0 | 0.00 | 0.00 | 0.00 | 59 | 1009.8 |
| 20260506025528 | 64 | 236 | 0.9 | 6.1 | 0.00 | 0.00 | 0.00 | 59 | 1009.8 |
| 20260506025028 | 64 | 224 | 2.6 | 13.9 | 0.00 | 0.00 | 0.00 | 58 | 1009.8 |
| 20260506024528 | 64 | 224 | 1.7 | 8.7 | 0.00 | 0.00 | 0.00 | 58 | 1009.8 |
| 20260506024028 | 64 | 207 | 2.6 | 12.2 | 0.00 | 0.00 | 0.00 | 58 | 1009.8 |
| 20260506023528 | 64 | 225 | 2.6 | 8.7 | 0.00 | 0.00 | 0.00 | 58 | 1009.8 |
| 20260506023028 | 65 | 231 | 1.7 | 9.6 | 0.00 | 0.00 | 0.00 | 57 | 1009.8 |
| 20260506022527 | 65 | 150 | 2.6 | 9.6 | 0.00 | 0.00 | 0.00 | 57 | 1009.8 |
| 20260506022027 | 65 | 234 | 1.7 | 11.3 | 0.00 | 0.00 | 0.00 | 57 | 1009.7 |
| 20260506021527 | 65 | 211 | 2.6 | 8.7 | 0.00 | 0.00 | 0.00 | 56 | 1009.7 |
| 20260506021027 | 65 | 187 | 0.9 | 7.0 | 0.00 | 0.00 | 0.00 | 57 | 1009.7 |
| 20260506020527 | 65 | 259 | 0.9 | 9.6 | 0.00 | 0.00 | 0.00 | 56 | 1009.7 |
| 20260506020027 | 65 | 64 | 3.5 | 12.2 | 0.00 | 0.00 | 0.00 | 55 | 1009.7 |
| 20260506015527 | 65 | 241 | 1.7 | 12.2 | 0.00 | 0.00 | 0.00 | 55 | 1009.6 |
| 20260506015027 | 66 | 212 | 1.7 | 6.1 | 0.00 | 0.00 | 0.00 | 55 | 1009.7 |
| 20260506014528 | 66 | 216 | 2.6 | 8.7 | 0.00 | 0.00 | 0.00 | 54 | 1009.7 |
| 20260506014028 | 66 | 208 | 3.5 | 9.6 | 0.00 | 0.00 | 0.00 | 54 | 1009.6 |
| 20260506013528 | 66 | 193 | 3.5 | 12.2 | 0.00 | 0.00 | 0.00 | 54 | 1009.6 |
| 20260506013028 | 66 | 264 | 1.7 | 12.2 | 0.00 | 0.00 | 0.00 | 54 | 1009.4 |
| 20260506012548 | 67 | 221 | 2.6 | 11.3 | 0.00 | 0.00 | 0.00 | 54 | 1009.4 |
| 20260506012048 | 67 | 211 | 3.5 | 11.3 | 0.00 | 0.00 | 0.00 | 54 | 1009.2 |
| 20260506011527 | 67 | 177 | 1.7 | 6.1 | 0.00 | 0.00 | 0.00 | 55 | 1009.2 |
| 20260506011028 | 67 | 230 | 2.6 | 8.7 | 0.00 | 0.00 | 0.00 | 55 | 1009.2 |
| 20260506010528 | 67 | 201 | 1.7 | 8.7 | 0.00 | 0.00 | 0.00 | 55 | 1009.0 |
| 20260506010027 | 67 | 203 | 1.7 | 7.8 | 0.00 | 0.00 | 0.00 | 55 | 1009.0 |
| 20260506005547 | 67 | 197 | 2.6 | 9.6 | 0.00 | 0.00 | 0.00 | 55 | 1009.0 |
| 20260506005027 | 67 | 206 | 2.6 | 9.6 | 0.00 | 0.00 | 0.00 | 55 | 1009.1 |
| 20260506004527 | 66 | 194 | 1.7 | 7.8 | 0.00 | 0.00 | 0.00 | 55 | 1009.0 |
| 20260506004027 | 67 | 203 | 1.7 | 12.2 | 0.00 | 0.00 | 0.00 | 55 | 1008.9 |
| 20260506003526 | 67 | 206 | 2.6 | 12.2 | 0.00 | 0.00 | 0.00 | 55 | 1008.8 |
| 20260506003029 | 67 | 194 | 1.7 | 6.1 | 0.00 | 0.00 | 0.00 | 55 | 1008.8 |
| 20260506002528 | 67 | 190 | 1.7 | 6.1 | 0.00 | 0.00 | 0.00 | 55 | 1008.6 |
| 20260506002028 | 66 | 157 | 1.7 | 6.1 | 0.00 | 0.00 | 0.00 | 55 | 1008.6 |
| 20260506001528 | 67 | 230 | 0.9 | 5.2 | 0.00 | 0.00 | 0.00 | 55 | 1008.3 |
| 20260506001028 | 67 | 216 | 1.7 | 7.8 | 0.00 | 0.00 | 0.00 | 54 | 1008.3 |
| 20260506000608 | 67 | 221 | 1.7 | 7.8 | 0.00 | 0.00 | 0.00 | 54 | 1008.1 |
| 20260506000028 | 67 | 201 | 2.6 | 9.6 | 0.00 | 0.00 | 0.00 | 53 | 1008.0 |
| 20260505235527 | 67 | 240 | 1.7 | 9.6 | 0.00 | 0.00 | 0.00 | 53 | 1008.0 |
| 20260505235047 | 68 | 197 | 2.6 | 7.8 | 0.00 | 0.00 | 0.00 | 53 | 1007.9 |
| 20260505234527 | 68 | 213 | 1.7 | 8.7 | 0.00 | 0.00 | 0.00 | 53 | 1007.7 |
| 20260505234027 | 68 | 173 | 2.6 | 12.2 | 0.00 | 0.00 | 0.00 | 52 | 1007.7 |
| 20260505233527 | 69 | 219 | 2.6 | 8.7 | 0.00 | 0.00 | 0.00 | 51 | 1007.7 |
| 20260505233027 | 70 | 242 | 2.6 | 9.6 | 0.00 | 0.00 | 0.00 | 50 | 1007.6 |
| 20260505232527 | 70 | 222 | 2.6 | 9.6 | 0.00 | 0.00 | 0.00 | 49 | 1007.5 |
| 20260505232027 | 70 | 226 | 2.6 | 9.6 | 0.00 | 0.00 | 0.00 | 48 | 1007.6 |
| 20260505231528 | 71 | 235 | 2.6 | 9.6 | 0.00 | 0.00 | 0.00 | 48 | 1007.4 |
| 20260505231029 | 71 | 178 | 1.7 | 7.0 | 0.00 | 0.00 | 0.00 | 48 | 1007.4 |
| 20260505230528 | 71 | 226 | 2.6 | 7.8 | 0.00 | 0.00 | 0.00 | 48 | 1007.4 |
| 20260505230028 | 71 | 248 | 2.6 | 7.0 | 0.00 | 0.00 | 0.00 | 48 | 1007.1 |
| 20260505225528 | 71 | 192 | 2.6 | 8.7 | 0.00 | 0.00 | 0.00 | 48 | 1007.1 |
| 20260505225027 | 72 | 184 | 2.6 | 12.2 | 0.00 | 0.00 | 0.00 | 48 | 1007.0 |
| 20260505224528 | 72 | 219 | 2.6 | 12.2 | 0.00 | 0.00 | 0.00 | 48 | 1006.9 |
| 20260505224027 | 72 | 206 | 3.5 | 11.3 | 0.00 | 0.00 | 0.00 | 47 | 1006.8 |
| 20260505223527 | 72 | 195 | 3.5 | 8.7 | 0.00 | 0.00 | 0.00 | 47 | 1006.7 |
| 20260505223027 | 72 | 211 | 3.5 | 8.7 | 0.00 | 0.00 | 0.00 | 47 | 1006.5 |
| 20260505222527 | 72 | 248 | 2.6 | 8.7 | 0.00 | 0.00 | 0.00 | 47 | 1006.4 |
| 20260505222027 | 73 | 198 | 2.6 | 11.3 | 0.00 | 0.00 | 0.00 | 47 | 1006.4 |
| 20260505221547 | 73 | 230 | 3.5 | 11.3 | 0.00 | 0.00 | 0.00 | 47 | 1006.5 |
| 20260505221027 | 73 | 203 | 4.3 | 20.0 | 0.00 | 0.00 | 0.00 | 46 | 1006.8 |
| 20260505220607 | 73 | 191 | 4.3 | 12.2 | 0.00 | 0.00 | 0.00 | 46 | 1006.8 |
| 20260505220048 | 73 | 182 | 2.6 | 13.9 | 0.00 | 0.00 | 0.00 | 47 | 1006.8 |
| 20260505215528 | 73 | 167 | 2.6 | 13.0 | 0.00 | 0.00 | 0.00 | 47 | 1006.8 |
| 20260505215028 | 73 | 206 | 2.6 | 9.6 | 0.00 | 0.00 | 0.00 | 46 | 1006.8 |
| 20260505214528 | 73 | 215 | 5.2 | 13.0 | 0.00 | 0.00 | 0.00 | 46 | 1006.7 |
| 20260505214028 | 74 | 208 | 4.3 | 13.0 | 0.00 | 0.00 | 0.00 | 45 | 1006.6 |
| 20260505213528 | 74 | 158 | 2.6 | 13.0 | 0.00 | 0.00 | 0.00 | 45 | 1006.6 |
| 20260505213028 | 74 | 217 | 2.6 | 13.0 | 0.00 | 0.00 | 0.00 | 45 | 1006.5 |
| 20260505212528 | 75 | 188 | 4.3 | 14.8 | 0.00 | 0.00 | 0.00 | 44 | 1006.4 |
| 20260505212048 | 75 | 208 | 3.5 | 14.8 | 0.00 | 0.00 | 0.00 | 44 | 1006.3 |
| 20260505211527 | 76 | 189 | 3.5 | 9.6 | 0.00 | 0.00 | 0.00 | 43 | 1006.2 |
| 20260505211047 | 76 | 226 | 5.2 | 13.0 | 0.00 | 0.00 | 0.00 | 42 | 1006.2 |
| 20260505210527 | 76 | 237 | 2.6 | 9.6 | 0.00 | 0.00 | 0.00 | 42 | 1006.1 |
| 20260505210027 | 77 | 213 | 3.5 | 13.0 | 0.00 | 0.00 | 0.00 | 41 | 1006.2 |
| 20260505205527 | 77 | 210 | 3.5 | 18.2 | 0.00 | 0.00 | 0.00 | 41 | 1006.2 |
| 20260505205026 | 77 | 252 | 3.5 | 18.2 | 0.00 | 0.00 | 0.00 | 41 | 1006.1 |
| 20260505204528 | 78 | 243 | 2.6 | 11.3 | 0.00 | 0.00 | 0.00 | 41 | 1006.0 |
| 20260505204029 | 78 | 167 | 3.5 | 15.6 | 0.00 | 0.00 | 0.00 | 40 | 1005.9 |
| 20260505203528 | 78 | 250 | 3.5 | 13.0 | 0.00 | 0.00 | 0.00 | 39 | 1006.1 |
| 20260505203028 | 79 | 229 | 3.5 | 12.2 | 0.00 | 0.00 | 0.00 | 39 | 1006.1 |
| 20260505202528 | 79 | 211 | 3.5 | 9.6 | 0.00 | 0.00 | 0.00 | 39 | 1006.1 |
| 20260505202028 | 79 | 195 | 4.3 | 20.0 | 0.00 | 0.00 | 0.00 | 38 | 1006.0 |
| 20260505201653 | 80 | 174 | 4.3 | 13.9 | 0.00 | 0.00 | 0.00 | 38 | 1006.1 |
| 20260505201028 | 80 | 210 | 3.5 | 13.0 | 0.00 | 0.00 | 0.00 | 39 | 1006.1 |
| 20260505200527 | 81 | 204 | 4.3 | 14.8 | 0.00 | 0.00 | 0.00 | 38 | 1005.9 |
| 20260505200047 | 80 | 220 | 1.7 | 8.7 | 0.00 | 0.00 | 0.00 | 39 | 1006.0 |
| 20260505195527 | 80 | 206 | 3.5 | 15.6 | 0.00 | 0.00 | 0.00 | 38 | 1006.0 |
| 20260505195048 | 80 | 220 | 4.3 | 19.1 | 0.00 | 0.00 | 0.00 | 37 | 1006.1 |
| 20260505194527 | 81 | 276 | 3.5 | 13.9 | 0.00 | 0.00 | 0.00 | 37 | 1006.1 |
| 20260505194048 | 80 | 212 | 3.5 | 13.9 | 0.00 | 0.00 | 0.00 | 37 | 1006.1 |
| 20260505193527 | 81 | 208 | 4.3 | 12.2 | 0.00 | 0.00 | 0.00 | 37 | 1006.3 |
| 20260505193047 | 81 | 184 | 3.5 | 13.0 | 0.00 | 0.00 | 0.00 | 37 | 1006.3 |
| 20260505192547 | 81 | 225 | 5.2 | 19.1 | 0.00 | 0.00 | 0.00 | 37 | 1006.4 |
| 20260505192029 | 81 | 199 | 3.5 | 11.3 | 0.00 | 0.00 | 0.00 | 37 | 1006.4 |
| 20260505191528 | 81 | 206 | 3.5 | 11.3 | 0.00 | 0.00 | 0.00 | 36 | 1006.5 |
| 20260505191028 | 81 | 209 | 4.3 | 16.5 | 0.00 | 0.00 | 0.00 | 36 | 1006.4 |
| 20260505190528 | 82 | 182 | 3.5 | 13.0 | 0.00 | 0.00 | 0.00 | 36 | 1006.4 |
| 20260505190028 | 81 | 215 | 2.6 | 13.0 | 0.00 | 0.00 | 0.00 | 38 | 1006.5 |
| 20260505185527 | 81 | 190 | 3.5 | 8.7 | 0.00 | 0.00 | 0.00 | 38 | 1006.6 |
| 20260505185047 | 81 | 213 | 2.6 | 11.3 | 0.00 | 0.00 | 0.00 | 39 | 1006.8 |
| 20260505184528 | 81 | 255 | 3.5 | 14.8 | 0.00 | 0.00 | 0.00 | 39 | 1006.9 |
| 20260505184028 | 81 | 179 | 3.5 | 13.9 | 0.00 | 0.00 | 0.00 | 39 | 1007.0 |
| 20260505183528 | 81 | 193 | 2.6 | 8.7 | 0.00 | 0.00 | 0.00 | 39 | 1007.1 |
| 20260505183048 | 81 | 197 | 4.3 | 13.9 | 0.00 | 0.00 | 0.00 | 39 | 1007.1 |
| 20260505182528 | 81 | 207 | 3.5 | 15.6 | 0.00 | 0.00 | 0.00 | 39 | 1007.2 |
| 20260505182028 | 81 | 253 | 4.3 | 15.6 | 0.00 | 0.00 | 0.00 | 38 | 1007.3 |
| 20260505181528 | 82 | 243 | 3.5 | 13.9 | 0.00 | 0.00 | 0.00 | 38 | 1007.2 |
| 20260505181028 | 82 | 202 | 3.5 | 13.9 | 0.00 | 0.00 | 0.00 | 38 | 1007.3 |
| 20260505180528 | 82 | 198 | 4.3 | 11.3 | 0.00 | 0.00 | 0.00 | 38 | 1007.2 |
| 20260505180027 | 82 | 213 | 3.5 | 13.9 | 0.00 | 0.00 | 0.00 | 38 | 1007.2 |
| 20260505175547 | 82 | 180 | 4.3 | 16.5 | 0.00 | 0.00 | 0.00 | 37 | 1007.3 |
| 20260505175027 | 83 | 211 | 3.5 | 16.5 | 0.00 | 0.00 | 0.00 | 37 | 1007.5 |
| 20260505174527 | 82 | 258 | 3.5 | 9.6 | 0.00 | 0.00 | 0.00 | 36 | 1007.6 |
| 20260505174027 | 82 | 211 | 3.5 | 11.3 | 0.00 | 0.00 | 0.00 | 37 | 1007.6 |
| 20260505173547 | 82 | 187 | 3.5 | 11.3 | 0.00 | 0.00 | 0.00 | 38 | 1007.5 |
| 20260505173026 | 82 | 222 | 3.5 | 8.7 | 0.00 | 0.00 | 0.00 | 36 | 1007.8 |
| 20260505172528 | 81 | 209 | 2.6 | 9.6 | 0.00 | 0.00 | 0.00 | 36 | 1007.8 |
| 20260505172028 | 81 | 264 | 2.6 | 13.0 | 0.00 | 0.00 | 0.00 | 37 | 1007.8 |
| 20260505171528 | 81 | 262 | 2.6 | 13.0 | 0.00 | 0.00 | 0.00 | 36 | 1007.8 |
| 20260505171028 | 81 | 217 | 5.2 | 15.6 | 0.00 | 0.00 | 0.00 | 36 | 1008.0 |
| 20260505170528 | 80 | 217 | 2.6 | 9.6 | 0.00 | 0.00 | 0.00 | 38 | 1008.0 |
| 20260505170048 | 80 | 128 | 2.6 | 9.6 | 0.00 | 0.00 | 0.00 | 38 | 1008.1 |
| 20260505165527 | 80 | 228 | 3.5 | 8.7 | 0.00 | 0.00 | 0.00 | 39 | 1008.3 |
| 20260505165027 | 80 | 234 | 2.6 | 12.2 | 0.00 | 0.00 | 0.00 | 39 | 1008.3 |
| 20260505164529 | 80 | 194 | 3.5 | 12.2 | 0.00 | 0.00 | 0.00 | 39 | 1008.4 |
| 20260505164029 | 80 | 246 | 1.7 | 6.1 | 0.00 | 0.00 | 0.00 | 40 | 1008.4 |
| 20260505163529 | 80 | 180 | 2.6 | 7.8 | 0.00 | 0.00 | 0.00 | 37 | 1008.6 |
| 20260505163029 | 80 | 173 | 2.6 | 13.0 | 0.00 | 0.00 | 0.00 | 37 | 1008.8 |
| 20260505162549 | 79 | 149 | 0.9 | 6.1 | 0.00 | 0.00 | 0.00 | 39 | 1008.8 |
| 20260505162028 | 78 | 250 | 2.6 | 9.6 | 0.00 | 0.00 | 0.00 | 39 | 1009.1 |
| 20260505161528 | 78 | 188 | 2.6 | 9.6 | 0.00 | 0.00 | 0.00 | 38 | 1009.1 |
| 20260505161029 | 78 | 221 | 2.6 | 7.8 | 0.00 | 0.00 | 0.00 | 39 | 1009.2 |
| 20260505160528 | 77 | 247 | 1.7 | 9.6 | 0.00 | 0.00 | 0.00 | 40 | 1009.1 |
| 20260505153029 | 75 | 224 | 0.9 | 2.6 | 0.00 | 0.00 | 0.00 | 45 | 1009.5 |
| 20260505152529 | 75 | 275 | 0.9 | 3.5 | 0.00 | 0.00 | 0.00 | 44 | 1009.5 |
| 20260505152029 | 75 | 253 | 1.7 | 7.8 | 0.00 | 0.00 | 0.00 | 44 | 1009.5 |
| 20260505151528 | 74 | 167 | 2.6 | 7.8 | 0.00 | 0.00 | 0.00 | 44 | 1009.6 |
| 20260505151030 | 74 | 273 | 1.7 | 7.0 | 0.00 | 0.00 | 0.00 | 48 | 1009.6 |
| 20260505150530 | 73 | 203 | 1.7 | 7.8 | 0.00 | 0.00 | 0.00 | 50 | 1009.7 |
| 20260505140529 | 67 | 230 | 1.7 | 6.1 | 0.00 | 0.00 | 0.00 | 57 | 1009.9 |
| 20260505125029 | 64 | 291 | 1.7 | 6.1 | 0.00 | 0.00 | 0.00 | 61 | 1010.0 |
| 20260505124528 | 64 | 263 | 1.7 | 3.5 | 0.00 | 0.00 | 0.00 | 63 | 1010.1 |
| 20260505123629 | 63 | 209 | 1.7 | 6.1 | 0.00 | 0.00 | 0.00 | 64 | 1010.0 |
| 20260505123050 | 63 | 266 | 1.7 | 6.1 | 0.00 | 0.00 | 0.00 | 63 | 1010.0 |
| 20260505122551 | 63 | 205 | 0.9 | 5.2 | 0.00 | 0.00 | 0.00 | 64 | 1010.0 |
| 20260505122030 | 62 | 220 | 1.7 | 5.2 | 0.00 | 0.00 | 0.00 | 65 | 1009.9 |
| 20260505121530 | 62 | 246 | 1.7 | 5.2 | 0.00 | 0.00 | 0.00 | 64 | 1010.0 |
| 20260505121030 | 62 | 108 | 0.9 | 6.1 | 0.00 | 0.00 | 0.00 | 65 | 1010.0 |
| 20260505120530 | 62 | 228 | 1.7 | 6.1 | 0.00 | 0.00 | 0.00 | 65 | 1009.7 |
| 20260505120030 | 61 | 205 | 1.7 | 8.7 | 0.00 | 0.00 | 0.00 | 66 | 1009.7 |
| 20260505115550 | 61 | 202 | 1.7 | 8.7 | 0.00 | 0.00 | 0.00 | 67 | 1009.9 |
| 20260505115030 | 61 | 215 | 2.6 | 6.1 | 0.00 | 0.00 | 0.00 | 67 | 1009.9 |
| 20260505114530 | 60 | 207 | 1.7 | 3.5 | 0.00 | 0.00 | 0.00 | 67 | 1009.9 |
| 20260505114030 | 60 | 198 | 1.7 | 5.2 | 0.00 | 0.00 | 0.00 | 69 | 1009.9 |
| 20260505113530 | 59 | 176 | 0.9 | 6.1 | 0.00 | 0.00 | 0.00 | 71 | 1009.8 |
| 20260505113030 | 59 | 213 | 1.7 | 6.1 | 0.00 | 0.00 | 0.00 | 71 | 1009.8 |
| 20260505112528 | 58 | 165 | 0.9 | 2.6 | 0.00 | 0.00 | 0.00 | 71 | 1009.8 |
| 20260505112030 | 58 | 214 | 0.9 | 3.5 | 0.00 | 0.00 | 0.00 | 72 | 1009.8 |
| 20260505111530 | 58 | 184 | 0.9 | 3.5 | 0.00 | 0.00 | 0.00 | 73 | 1009.8 |
| 20260505111110 | 57 | 168 | 0.9 | 2.6 | 0.00 | 0.00 | 0.00 | 74 | 1009.9 |
| 20260505110530 | 56 | 198 | 0.9 | 2.6 | 0.00 | 0.00 | 0.00 | 75 | 1010.0 |
| 20260505102030 | 53 | 193 | 0.9 | 3.5 | 0.00 | 0.00 | 0.00 | 80 | 1009.8 |
| 20260505101530 | 53 | 176 | 1.7 | 7.0 | 0.00 | 0.00 | 0.00 | 80 | 1009.7 |
| 20260505101030 | 53 | 186 | 1.7 | 7.0 | 0.00 | 0.00 | 0.00 | 80 | 1009.7 |
| 20260505100549 | 53 | 190 | 1.7 | 5.2 | 0.00 | 0.00 | 0.00 | 79 | 1009.8 |
| 20260505100050 | 52 | 183 | 0.9 | 5.2 | 0.00 | 0.00 | 0.00 | 79 | 1009.8 |
| 20260505095529 | 52 | 185 | 1.7 | 5.2 | 0.00 | 0.00 | 0.00 | 79 | 1009.7 |
| 20260505095029 | 52 | 183 | 0.9 | 5.2 | 0.00 | 0.00 | 0.00 | 79 | 1009.8 |
| 20260505094529 | 52 | 194 | 0.9 | 3.5 | 0.00 | 0.00 | 0.00 | 79 | 1009.9 |
| 20260505094029 | 52 | 209 | 1.7 | 6.1 | 0.00 | 0.00 | 0.00 | 79 | 1009.8 |
| 20260505093529 | 52 | 191 | 0.9 | 3.5 | 0.00 | 0.00 | 0.00 | 78 | 1009.8 |
| 20260505093029 | 52 | 201 | 0.9 | 3.5 | 0.00 | 0.00 | 0.00 | 78 | 1009.8 |
| 20260505092530 | 52 | 199 | 0.9 | 5.2 | 0.00 | 0.00 | 0.00 | 78 | 1009.7 |
| 20260505092030 | 52 | 185 | 0.9 | 3.5 | 0.00 | 0.00 | 0.00 | 78 | 1009.8 |
| 20260505091530 | 52 | 169 | 0.9 | 3.5 | 0.00 | 0.00 | 0.00 | 78 | 1009.8 |
| 20260505091050 | 52 | 196 | 0.9 | 5.2 | 0.00 | 0.00 | 0.00 | 77 | 1009.8 |
| 20260505090530 | 52 | 188 | 1.7 | 7.0 | 0.00 | 0.00 | 0.00 | 77 | 1009.8 |
| 20260505090050 | 53 | 183 | 0.9 | 2.6 | 0.00 | 0.00 | 0.00 | 76 | 1009.8 |
| 20260505085529 | 53 | 174 | 0.9 | 5.2 | 0.00 | 0.00 | 0.00 | 76 | 1009.9 |
| 20260505085034 | 53 | 217 | 0.9 | 5.2 | 0.00 | 0.00 | 0.00 | 76 | 1010.0 |
| 20260505084529 | 53 | 200 | 0.9 | 3.5 | 0.00 | 0.00 | 0.00 | 76 | 1010.0 |
| 20260505084029 | 52 | 207 | 0.9 | 3.5 | 0.00 | 0.00 | 0.00 | 76 | 1010.1 |
| 20260505083529 | 52 | 231 | 0.9 | 6.1 | 0.00 | 0.00 | 0.00 | 76 | 1010.1 |
| 20260505083049 | 52 | 219 | 0.9 | 6.1 | 0.00 | 0.00 | 0.00 | 76 | 1010.0 |
| 20260505082529 | 52 | 205 | 0.9 | 2.6 | 0.00 | 0.00 | 0.00 | 76 | 1010.1 |
| 20260505082048 | 52 | 191 | 0.9 | 6.1 | 0.00 | 0.00 | 0.00 | 75 | 1010.0 |
| 20260505081528 | 52 | 229 | 0.0 | 5.2 | 0.00 | 0.00 | 0.00 | 75 | 1009.9 |
| 20260505081030 | 53 | 190 | 0.9 | 5.2 | 0.00 | 0.00 | 0.00 | 75 | 1009.9 |
| 20260505080530 | 53 | 216 | 0.9 | 2.6 | 0.00 | 0.00 | 0.00 | 75 | 1010.0 |
| 20260505080030 | 53 | 184 | 0.0 | 1.7 | 0.00 | 0.00 | 0.00 | 74 | 1010.1 |
| 20260505075530 | 52 | 196 | 0.9 | 5.2 | 0.00 | 0.00 | 0.00 | 74 | 1010.1 |
| 20260505075030 | 52 | 184 | 0.0 | 3.5 | 0.00 | 0.00 | 0.00 | 74 | 1010.1 |
| 20260505074529 | 52 | 213 | 0.0 | 1.7 | 0.00 | 0.00 | 0.00 | 74 | 1010.0 |
| 20260505074029 | 52 | 193 | 0.9 | 3.5 | 0.00 | 0.00 | 0.00 | 74 | 1010.2 |
| 20260505073529 | 52 | 188 | 0.9 | 7.0 | 0.00 | 0.00 | 0.00 | 74 | 1010.1 |
| 20260505073029 | 52 | 168 | 0.9 | 3.5 | 0.00 | 0.00 | 0.00 | 74 | 1010.1 |
| 20260505072530 | 52 | 190 | 0.9 | 5.2 | 0.00 | 0.00 | 0.00 | 74 | 1010.1 |
| 20260505072030 | 52 | 200 | 0.9 | 2.6 | 0.00 | 0.00 | 0.00 | 73 | 1010.1 |
| 20260505071530 | 52 | 171 | 0.0 | 1.7 | 0.00 | 0.00 | 0.00 | 73 | 1010.1 |
| 20260505071030 | 52 | 154 | 0.0 | 6.1 | 0.00 | 0.00 | 0.00 | 73 | 1010.1 |
| 20260505070530 | 52 | 209 | 0.9 | 6.1 | 0.00 | 0.00 | 0.00 | 73 | 1010.3 |
| 20260505070029 | 52 | 173 | 0.9 | 2.6 | 0.00 | 0.00 | 0.00 | 73 | 1010.2 |
| 20260505065529 | 52 | 218 | 0.9 | 3.5 | 0.00 | 0.00 | 0.00 | 73 | 1010.3 |
| 20260505065028 | 53 | 203 | 0.9 | 2.6 | 0.00 | 0.00 | 0.00 | 72 | 1010.3 |
| 20260505064528 | 53 | 198 | 0.0 | 2.6 | 0.00 | 0.00 | 0.00 | 72 | 1010.3 |
| 20260505064050 | 53 | 171 | 0.9 | 7.0 | 0.00 | 0.00 | 0.00 | 72 | 1010.3 |
| 20260505063530 | 52 | 169 | 0.0 | 2.6 | 0.00 | 0.00 | 0.00 | 72 | 1010.3 |
| 20260505063030 | 53 | 141 | 0.0 | 2.6 | 0.00 | 0.00 | 0.00 | 72 | 1010.3 |
| 20260505062530 | 53 | 152 | 0.0 | 1.7 | 0.00 | 0.00 | 0.00 | 72 | 1010.4 |
| 20260505062050 | 53 | 191 | 0.0 | 1.7 | 0.00 | 0.00 | 0.00 | 72 | 1010.4 |
| 20260505061529 | 53 | 211 | 0.9 | 3.5 | 0.00 | 0.00 | 0.00 | 71 | 1010.3 |
| 20260505061029 | 53 | 217 | 0.0 | 1.7 | 0.00 | 0.00 | 0.00 | 70 | 1010.3 |
| 20260505060529 | 53 | 196 | 0.0 | 2.6 | 0.00 | 0.00 | 0.00 | 70 | 1010.4 |
| 20260505060029 | 53 | 210 | 0.9 | 2.6 | 0.00 | 0.00 | 0.00 | 69 | 1010.3 |
| 20260505055529 | 54 | 261 | 0.0 | 2.6 | 0.00 | 0.00 | 0.00 | 69 | 1010.3 |
| 20260505055029 | 54 | 290 | 0.0 | 0.9 | 0.00 | 0.00 | 0.00 | 68 | 1010.3 |
| 20260505054529 | 54 | 180 | 0.0 | 2.6 | 0.00 | 0.00 | 0.00 | 68 | 1010.4 |
| 20260505054029 | 54 | 204 | 0.9 | 3.5 | 0.00 | 0.00 | 0.00 | 67 | 1010.5 |
| 20260505053531 | 54 | 159 | 0.0 | 3.5 | 0.00 | 0.00 | 0.00 | 67 | 1010.4 |
| 20260505053030 | 54 | 215 | 0.9 | 3.5 | 0.00 | 0.00 | 0.00 | 67 | 1010.4 |
| 20260505052530 | 54 | 224 | 0.9 | 2.6 | 0.00 | 0.00 | 0.00 | 66 | 1010.4 |
| 20260505052030 | 55 | 223 | 0.9 | 3.5 | 0.00 | 0.00 | 0.00 | 66 | 1010.5 |
| 20260505051530 | 55 | 197 | 0.9 | 3.5 | 0.00 | 0.00 | 0.00 | 65 | 1010.4 |
| 20260505051030 | 55 | 210 | 0.9 | 5.2 | 0.00 | 0.00 | 0.00 | 65 | 1010.4 |
| 20260505050530 | 55 | 202 | 2.6 | 7.0 | 0.00 | 0.00 | 0.00 | 65 | 1010.5 |
| 20260505041551 | 56 | 204 | 1.7 | 8.7 | 0.00 | 0.00 | 0.00 | 61 | 1010.5 |
| 20260505041030 | 56 | 208 | 1.7 | 8.7 | 0.00 | 0.00 | 0.00 | 61 | 1010.5 |
| 20260505040530 | 56 | 204 | 1.7 | 7.0 | 0.00 | 0.00 | 0.00 | 61 | 1010.5 |
| 20260505040030 | 56 | 179 | 0.9 | 3.5 | 0.00 | 0.00 | 0.00 | 61 | 1010.4 |
| 20260505035530 | 56 | 180 | 0.9 | 2.6 | 0.00 | 0.00 | 0.00 | 60 | 1010.3 |
| 20260505035030 | 56 | 184 | 0.9 | 3.5 | 0.00 | 0.00 | 0.00 | 59 | 1010.4 |
| 20260505034529 | 56 | 224 | 0.9 | 6.1 | 0.00 | 0.00 | 0.00 | 59 | 1010.4 |
| 20260505034029 | 56 | 234 | 1.7 | 6.1 | 0.00 | 0.00 | 0.00 | 58 | 1010.4 |
| 20260505033529 | 57 | 244 | 0.9 | 5.2 | 0.00 | 0.00 | 0.00 | 58 | 1010.4 |